Location: Saint-Usage
(47.1052°N, 5.2587°E)
Time: 08:02:13
(UTC+02:00)

Nauka - Pass Details

Date: 02 October 2021
Orbit: 418 x 423 km, 51.6° (Epoch: 18 October)

Event Time Altitude Azimuth Distance (km) Brightness Sun altitude
Rises 21:04:19 0° 293° (WNW) 2,366 ? -19.0°
Reaches altitude 10° 21:06:28 10° 286° (WNW) 1,500 ? -19.4°
Maximum altitude 21:09:40 42° 215° (SW) 610 ? -19.9°
Enters shadow 21:10:02 40° 195° (SSW) 630 ? -20.0°
